EHI
0 0 0 0 0 0 0 0 0 0 0 0 0 0 0 0 0 0 0 0 0 0 0 0 0 0 0 0 0 0 0 0 0 0 0 0 0 0
0 0 0 0 0 0 0 0 0 0 0 0 0 0 0 0 0 0 0 0 0 0 0 0 0 0 0 0 0 0 0 0 0 0 0 0 0 0
0 0 0 0 0 0 0 0 0 0 0 0 0 0 0 0 0 0 0 0 0 0 0 0 0 0 0 0 0 0 0 0 0 0 0 0 0 0
0 0 0 0 0 0 0 0 0 0 0 0 0 0 0 0 0 0 0 0 0 0 0 0 0 0 0 0 0 0 0 0 0 0 0 0 0 0
0 0 0 0 0 0 0 0 0 0 0 0 0 0 0 0 0 0 0 0 0 0 0 0 0 0 0 0 0 0 0 0 0 0 0 0 0 0
0 0 0 0 0 0 0 0 0 0 0 0 0 0 0 0 0 0 0 0 0 0 0 0 0 0 0 0 0 0 0 0 0 0 0 0 0 0
0 0 0 0 0 0 0 0 0 0 0 0 0 0 0 0 0 0 0 0 0 0 0 0 0 0 0 0 0 0 0 0 0 0 0 0 0 0
0 0 0 0 0 0 0 0 0 0 0 0 0 0 0 0 0 0 0 0 0 0 0 0 0 0 0 0 0 0 0 0 0 0 0 0 0 0
0 0 0 0 0 0 0 0 0 0 0 0 0 0 0 0 0 0 0 0 0 0 0 0 0 0 0 0 0 0 0 0 0 0 0 0 0 0
0 0 0 0 0 0 0 0 0 0 0 0 0 0 0 0 0 0 0 0 0 0 0 0 0 0 0 0 0 0 0 0 0 0 0 0 0 0
0 0 0 0 0 0 0 0 0 0 0 0 0 0 0 0 0 0 0 0 0 0 0 0 0 0 0 0 0 0 0 0 0 0 0 0 0 0
0 0 0 0 0 0 0 0 0 0 0 0 0 0 0 0 0 0 0 0 0 0 0 0 0 0 0 0 0 0 0 0 0 0 0 0 0 0
0 0 0 0 0 0 0 0 0 0 0 0 0 0 0 0 0 0 0 0 0 0 0 0 0 0 0 0 0 0 0 0 0 0 0 0 0 0
0 0 0 0 0 0 0 0 0 0 0 0 0 0 0 0 0 0 0 0 0 0 0 0 0 0 0 0 0 0 0 0 0 0 0 0 0 0
0 0 0 0 0 0 0 0 0 0 0 0 0 0 0 0 0 0 0 0 0 0 0 0 0 0 0 0 0 0 0 0 0 0 0 0 0 0
0 0 0 0 0 0 0 0 0 0 0 0 0 0 0 0 0 0 0 0 0 0 0 0 0 0 0 0 0 0 0 0 0 0 0 0 0 0
0 0 0 0 0 0 0 0 0 0 0 0 0 0 0 0 0 0 0 0 0 0 0 0 0 0 0 0 0 0 0 0 0 0 0 0 0 0
0 0 0 0 0 0 0 0 0 0 0 0 0 0 0 0 0 0 0 0 0 0 0 0 0 0 0 0 0 0 0 0 0 0 0 0 0 0
0 0 0 0 0 0 0 0 0 0 0 0 0 0 0 0 0 0 0 0 0 0 0 0 0 0 0 0 0 0 0 0 0 0 0 0 0 0
0 0 0 0 0 0 0 0 0 0 0 0 0 0 0 0 0 0 0 0 0 0 0 0 0 0 0 0 0 0 0 0 0 0 0 0 0 0
0 0 0 0 0 0 0 0 0 0 0 0 0 0 0 0 0 0 0 0 0 0 0 0 0 0 0 0 0 0 0 0 0 0 0 0 0 0
0 0 0 0 0 0 0 0 0 0 0 0 0 0 0 0 0 0 0 0 0 0 0 0 0 0 0 0 0 0 0 0 0 0 0 0 0 0
0 0 0 0 0 0 0 0 0 0 0 0 0 0 0 0 0 0 0 0 0 0 0 0 0 0 0 0 0 0 0 0 0 0 0 0 0 0
Wind_Speed
3 3 3 3 3 3 3 4 4 5 5 4 3 2 3 3 4 5 6 6 7 9 10 11 11 11 11 12 12 13 13 14 14 14 14 14 15 16
2 3 3 2 2 2 3 3 4 5 5 3 3 4 4 4 5 6 6 8 8 9 10 11 11 11 11 12 12 13 14 14 14 14 15 15 15 15
2 2 2 3 2 2 2 3 3 4 5 4 4 5 6 6 5 6 6 6 6 8 10 11 11 11 11 12 13 13 14 14 14 15 15 15 15 15
2 2 3 2 3 3 2 3 3 3 4 6 5 4 6 6 7 7 6 5 6 8 9 10 10 11 12 12 13 13 13 13 14 14 14 15 15 15
3 3 3 3 3 3 3 3 3 3 4 5 5 4 5 5 6 6 7 6 6 6 8 9 10 11 12 12 12 12 12 13 13 14 14 14 14 14
2 2 3 3 3 4 3 4 4 4 4 4 5 4 4 5 5 5 6 5 6 6 6 7 9 10 10 11 11 11 11 12 13 13 13 13 13 14
2 2 2 2 3 3 3 4 4 4 4 4 4 4 4 4 4 5 6 6 6 5 5 6 6 6 6 8 9 9 10 11 12 12 13 13 13 14
2 2 1 2 2 3 4 4 4 5 5 4 4 5 6 5 5 5 6 6 6 4 6 7 6 6 6 6 8 10 11 11 12 12 13 13 14 14
2 1 1 1 2 2 3 3 4 4 5 6 6 7 7 6 7 7 6 7 7 7 7 7 6 7 6 7 10 9 10 11 12 13 13 13 14 15
1 1 1 2 2 3 3 3 4 4 4 4 5 6 6 7 7 7 7 8 8 6 6 7 6 7 7 7 8 9 10 11 12 13 13 14 14 15
1 1 2 2 2 3 3 3 4 3 3 4 5 6 7 8 7 5 5 5 6 5 4 5 6 7 7 6 6 8 10 11 12 14 14 14 14 14
1 1 1 2 3 4 3 3 4 4 4 5 4 5 5 5 6 5 4 5 5 5 3 4 5 5 6 4 5 6 7 10 13 13 14 13 13 9
1 1 1 2 3 4 4 3 4 4 4 4 4 4 4 4 4 4 4 4 5 5 4 4 5 5 5 6 6 6 7 7 8 9 10 12 12 10
2 1 1 2 3 4 3 3 4 4 2 3 3 3 4 4 4 5 6 5 6 7 7 6 5 6 6 8 7 6 6 7 7 7 7 10 10 12
1 1 2 2 3 2 2 4 3 2 2 3 3 3 4 4 5 5 5 5 6 6 6 6 6 6 7 8 8 8 8 7 6 6 6 7 7 7
2 2 2 2 2 2 2 2 2 2 2 3 3 4 4 4 4 4 5 5 5 5 4 5 6 7 7 9 8 9 8 6 6 7 7 7 7 6
2 2 2 2 2 1 1 2 2 2 2 3 3 4 4 4 4 4 4 5 5 5 6 5 5 6 7 8 8 7 7 7 7 7 7 8 7 7
3 3 2 2 2 2 2 2 2 2 2 3 3 3 4 4 5 4 4 4 5 6 6 6 6 6 5 4 6 8 7 7 7 7 6 7 8 7
4 3 3 3 2 2 2 2 3 2 2 3 3 3 4 4 4 5 4 5 5 5 6 5 5 5 7 7 4 4 6 7 8 7 6 6 8 8
4 3 3 3 3 3 3 3 3 2 2 3 3 3 3 4 4 5 4 5 6 6 6 5 5 5 6 7 7 7 7 7 7 7 7 7 7 9
4 4 3 3 3 3 3 3 3 3 3 3 3 3 3 4 4 4 5 7 6 6 6 6 6 8 6 5 6 7 6 6 7 7 7 6 6 5
4 4 4 4 3 3 3 3 3 3 3 3 3 3 3 4 4 5 5 5 5 6 7 6 6 6 4 5 7 8 8 7 7 7 6 5 4 4
4 4 4 4 4 3 3 3 4 3 3 3 3 3 3 4 4 4 4 5 5 6 6 6 6 5 5 5 6 7 8 8 6 5 4 4 5 7
Wind_Direction
262 263 264 267 264 265 264 258 262 265 260 259 261 263 289 289 304 292 289 296 286 282 283 286 287 286 282 282 284 285 286 286 283 279 278 275 272 273
270 264 266 268 266 269 267 267 263 263 266 274 283 294 298 291 298 292 288 292 278 278 279 282 282 282 282 284 285 285 284 283 280 277 277 276 275 276
267 263 266 268 264 263 266 266 263 262 266 278 279 287 287 291 291 288 286 283 280 278 280 279 279 281 282 284 284 282 282 281 280 278 277 276 276 279
261 261 266 270 272 271 267 263 262 265 267 277 283 284 286 290 291 290 290 286 285 285 284 282 280 280 282 283 283 281 282 283 281 278 279 278 279 280
263 265 270 276 277 276 274 269 268 267 264 269 278 283 286 292 295 293 291 290 294 292 287 281 282 284 284 285 285 283 282 282 281 279 279 280 281 282
275 272 277 276 278 280 276 275 274 272 268 269 276 284 287 292 293 297 298 300 300 297 293 294 291 287 282 283 286 287 284 284 283 282 283 283 283 283
274 275 287 300 303 294 291 291 288 281 282 280 282 286 286 294 295 298 296 301 297 292 301 299 297 290 285 283 283 285 287 288 289 289 289 287 287 286
277 286 296 292 308 314 315 317 309 293 287 285 283 285 292 298 298 294 296 298 294 302 305 298 295 291 292 287 290 293 294 294 293 293 292 291 290 289
283 298 313 329 319 319 323 315 308 307 297 288 286 290 295 299 298 294 291 291 288 298 301 289 291 292 296 295 298 294 294 297 299 297 294 293 292 289
282 288 290 312 332 324 314 312 313 317 310 297 289 293 298 298 290 291 293 292 287 286 290 285 294 296 299 294 295 299 299 300 299 298 297 296 294 290
269 286 291 299 331 317 303 305 308 318 335 324 313 309 312 311 303 291 288 289 291 292 291 282 295 304 296 286 288 295 298 298 299 299 297 295 296 293
256 279 300 313 324 313 297 295 301 314 320 318 317 318 316 317 316 298 287 285 292 290 290 292 295 311 302 293 304 306 302 299 300 298 297 295 297 293
251 272 304 323 321 319 308 300 305 311 310 310 314 320 324 324 323 315 302 284 281 277 291 301 291 292 284 297 302 300 302 304 304 301 300 298 296 294
256 273 304 321 312 313 316 325 321 314 306 307 311 319 322 324 323 317 308 295 279 276 284 285 277 282 286 289 292 298 304 302 301 301 303 302 297 293
254 285 301 305 302 304 320 325 317 307 305 303 308 314 315 312 311 311 310 300 291 284 281 278 276 279 276 278 286 294 303 303 299 300 303 301 297 295
231 233 256 274 283 303 310 309 308 314 309 301 306 308 308 308 311 314 312 314 306 302 294 284 277 276 277 276 279 286 292 293 300 303 301 296 293 286
209 220 234 248 260 276 291 299 303 303 302 305 306 309 312 313 313 316 310 308 303 307 313 315 306 290 276 276 278 281 289 291 293 302 302 298 294 291
208 223 228 237 252 267 278 283 285 292 299 302 302 306 310 312 313 313 310 308 308 309 311 315 319 312 295 265 249 275 288 294 301 302 298 295 295 298
218 226 231 238 248 256 263 270 277 287 292 290 293 300 304 307 308 310 311 311 309 310 311 314 316 313 310 309 292 251 286 299 301 299 296 291 290 296
222 227 232 236 242 249 254 262 269 277 278 282 288 292 296 300 304 308 310 311 309 310 311 313 314 313 305 302 300 296 288 288 294 297 300 297 288 288
218 226 232 234 238 243 248 253 258 265 273 279 281 286 289 292 295 300 303 309 310 310 312 313 310 305 293 287 288 294 304 297 286 289 297 301 303 305
219 224 229 232 235 237 241 245 251 258 265 269 277 283 285 285 288 294 299 305 308 308 308 307 310 310 302 297 300 305 310 316 312 301 287 283 301 311
218 221 225 227 229 231 235 240 246 253 259 267 273 278 283 285 287 290 295 301 305 308 310 311 315 314 308 302 304 308 315 321 323 330 327 324 306 299